GEFSSE_prec_meanprec_006.txt.gz
QPF
0.00 0.00 0.00 0.01 0.01 0.02 0.07 0.14 0.19 0.18 0.15 0.12 0.04 0.01 0.01 0.02 0.02 0.03 0.04 0.07 0.18 0.20 0.13 0.03 0.00 0.00 0.01 0.02 0.04 0.04 0.04 0.04 0.04 0.03 0.05 0.07 0.06 0.11 0.13 0.13 0.08 0.11 0.05
0.00 0.00 0.01 0.03 0.02 0.01 0.06 0.12 0.17 0.17 0.18 0.10 0.04 0.03 0.04 0.02 0.01 0.02 0.02 0.04 0.10 0.12 0.06 0.01 0.00 0.00 0.01 0.02 0.07 0.09 0.05 0.04 0.05 0.04 0.04 0.05 0.06 0.09 0.07 0.10 0.08 0.04 0.02
0.00 0.00 0.04 0.06 0.03 0.02 0.06 0.13 0.16 0.17 0.18 0.08 0.05 0.03 0.02 0.01 0.01 0.02 0.02 0.05 0.10 0.06 0.02 0.00 0.00 0.00 0.01 0.03 0.07 0.09 0.08 0.08 0.10 0.10 0.04 0.01 0.02 0.03 0.04 0.06 0.06 0.03 0.02
0.00 0.02 0.06 0.06 0.03 0.04 0.08 0.12 0.12 0.15 0.20 0.11 0.05 0.01 0.01 0.00 0.02 0.04 0.08 0.14 0.10 0.03 0.01 0.00 0.00 0.00 0.00 0.02 0.05 0.05 0.05 0.05 0.07 0.06 0.01 0.01 0.03 0.01 0.01 0.02 0.04 0.03 0.03
0.00 0.03 0.07 0.05 0.03 0.04 0.08 0.09 0.07 0.14 0.19 0.12 0.06 0.00 0.00 0.01 0.04 0.11 0.15 0.12 0.04 0.01 0.00 0.00 0.00 0.00 0.00 0.01 0.05 0.04 0.02 0.01 0.01 0.01 0.01 0.01 0.04 0.04 0.03 0.04 0.05 0.05 0.03
0.00 0.01 0.05 0.05 0.03 0.03 0.06 0.08 0.06 0.11 0.14 0.12 0.04 0.01 0.00 0.01 0.03 0.07 0.12 0.10 0.03 0.01 0.00 0.00 0.00 0.00 0.00 0.00 0.03 0.04 0.02 0.02 0.00 0.00 0.01 0.03 0.06 0.05 0.06 0.07 0.09 0.06 0.04
0.00 0.01 0.02 0.04 0.02 0.03 0.07 0.08 0.06 0.06 0.09 0.09 0.05 0.03 0.02 0.02 0.03 0.04 0.07 0.07 0.03 0.00 0.00 0.00 0.00 0.00 0.00 0.01 0.03 0.04 0.04 0.02 0.00 0.00 0.00 0.01 0.03 0.05 0.06 0.11 0.14 0.05 0.03
0.00 0.01 0.01 0.03 0.01 0.02 0.06 0.07 0.05 0.05 0.06 0.07 0.07 0.05 0.05 0.05 0.05 0.04 0.05 0.05 0.02 0.00 0.00 0.00 0.00 0.00 0.01 0.03 0.04 0.05 0.04 0.01 0.00 0.00 0.00 0.00 0.02 0.03 0.05 0.08 0.11 0.05 0.04
0.00 0.00 0.01 0.01 0.00 0.01 0.03 0.04 0.03 0.04 0.04 0.05 0.06 0.06 0.06 0.05 0.04 0.03 0.03 0.02 0.01 0.00 0.00 0.00 0.00 0.00 0.01 0.06 0.07 0.07 0.03 0.00 0.00 0.00 0.00 0.00 0.00 0.01 0.01 0.01 0.02 0.02 0.04
0.00 0.00 0.00 0.00 0.00 0.01 0.01 0.02 0.02 0.02 0.03 0.05 0.06 0.05 0.05 0.02 0.01 0.01 0.02 0.01 0.00 0.00 0.00 0.00 0.00 0.00 0.03 0.08 0.07 0.03 0.01 0.00 0.00 0.00 0.00 0.00 0.00 0.00 0.00 0.00 0.00 0.00 0.01
0.00 0.00 0.00 0.00 0.00 0.00 0.00 0.02 0.02 0.02 0.03 0.07 0.09 0.09 0.06 0.02 0.01 0.01 0.02 0.03 0.01 0.00 0.00 0.00 0.00 0.00 0.02 0.06 0.03 0.00 0.00 0.00 0.00 0.00 0.01 0.03 0.02 0.00 0.00 0.00 0.00 0.00 0.00
0.00 0.00 0.00 0.00 0.00 0.00 0.00 0.00 0.00 0.00 0.01 0.05 0.11 0.14 0.07 0.00 0.00 0.00 0.02 0.03 0.03 0.01 0.01 0.00 0.00 0.00 0.00 0.01 0.00 0.00 0.00 0.00 0.00 0.00 0.02 0.07 0.06 0.02 0.01 0.00 0.00 0.00 0.00
0.00 0.00 0.00 0.00 0.00 0.00 0.00 0.00 0.00 0.01 0.02 0.03 0.06 0.10 0.03 0.00 0.00 0.01 0.03 0.04 0.04 0.03 0.02 0.01 0.00 0.00 0.00 0.00 0.00 0.00 0.00 0.00 0.00 0.00 0.04 0.13 0.12 0.06 0.03 0.02 0.01 0.01 0.00
0.00 0.00 0.00 0.00 0.00 0.00 0.00 0.00 0.01 0.02 0.05 0.05 0.02 0.04 0.02 0.00 0.01 0.01 0.02 0.04 0.04 0.04 0.01 0.00 0.00 0.00 0.00 0.00 0.00 0.00 0.00 0.00 0.00 0.01 0.07 0.19 0.21 0.10 0.06 0.04 0.03 0.02 0.02
0.00 0.01 0.02 0.02 0.03 0.02 0.01 0.00 0.00 0.01 0.03 0.03 0.01 0.01 0.03 0.01 0.00 0.00 0.00 0.01 0.02 0.02 0.01 0.00 0.00 0.00 0.00 0.00 0.00 0.00 0.00 0.00 0.00 0.00 0.04 0.16 0.24 0.19 0.12 0.07 0.05 0.04 0.04
0.01 0.04 0.05 0.05 0.07 0.04 0.02 0.00 0.00 0.01 0.01 0.01 0.00 0.00 0.01 0.00 0.00 0.00 0.00 0.01 0.01 0.01 0.03 0.01 0.00 0.00 0.00 0.00 0.00 0.00 0.00 0.00 0.00 0.00 0.01 0.07 0.15 0.16 0.17 0.17 0.15 0.13 0.08
0.01 0.03 0.02 0.01 0.01 0.01 0.01 0.01 0.00 0.00 0.00 0.00 0.00 0.01 0.02 0.00 0.00 0.00 0.00 0.04 0.04 0.01 0.01 0.01 0.00 0.00 0.00 0.00 0.00 0.00 0.00 0.00 0.00 0.00 0.00 0.00 0.01 0.02 0.06 0.12 0.18 0.20 0.16
0.00 0.01 0.00 0.00 0.00 0.00 0.00 0.00 0.01 0.00 0.00 0.01 0.01 0.02 0.04 0.01 0.00 0.00 0.01 0.07 0.11 0.04 0.00 0.01 0.02 0.01 0.01 0.00 0.00 0.00 0.00 0.00 0.00 0.00 0.00 0.00 0.00 0.00 0.00 0.01 0.02 0.07 0.15
0.00 0.00 0.01 0.02 0.02 0.02 0.02 0.02 0.03 0.03 0.03 0.05 0.03 0.08 0.09 0.03 0.01 0.00 0.01 0.05 0.08 0.07 0.03 0.01 0.02 0.02 0.02 0.00 0.00 0.00 0.00 0.00 0.00 0.00 0.00 0.00 0.00 0.00 0.00 0.00 0.00 0.00 0.01
0.00 0.00 0.03 0.08 0.08 0.09 0.13 0.15 0.15 0.14 0.11 0.12 0.12 0.17 0.16 0.05 0.02 0.01 0.01 0.02 0.02 0.07 0.12 0.04 0.03 0.03 0.03 0.00 0.00 0.00 0.00 0.00 0.00 0.00 0.00 0.00 0.00 0.00 0.00 0.00 0.00 0.00 0.00
0.00 0.00 0.03 0.06 0.08 0.09 0.17 0.24 0.29 0.34 0.35 0.29 0.29 0.34 0.28 0.15 0.07 0.02 0.03 0.03 0.01 0.05 0.09 0.06 0.09 0.05 0.02 0.00 0.00 0.00 0.00 0.00 0.00 0.00 0.00 0.00 0.00 0.00 0.00 0.00 0.00 0.00 0.00
0.00 0.01 0.03 0.04 0.06 0.11 0.18 0.25 0.34 0.43 0.45 0.41 0.37 0.34 0.29 0.22 0.13 0.04 0.03 0.04 0.03 0.01 0.03 0.06 0.10 0.05 0.02 0.00 0.00 0.00 0.00 0.00 0.00 0.00 0.00 0.00 0.00 0.00 0.00 0.00 0.00 0.00 0.00
0.00 0.00 0.02 0.04 0.09 0.15 0.21 0.26 0.25 0.29 0.27 0.27 0.25 0.23 0.24 0.21 0.15 0.07 0.05 0.07 0.07 0.03 0.02 0.03 0.04 0.02 0.01 0.00 0.00 0.00 0.00 0.00 0.00 0.00 0.00 0.00 0.00 0.00 0.00 0.00 0.00 0.00 0.00
0.00 0.00 0.00 0.02 0.04 0.08 0.13 0.14 0.11 0.10 0.09 0.11 0.14 0.15 0.18 0.22 0.21 0.18 0.12 0.12 0.12 0.07 0.03 0.04 0.04 0.02 0.00 0.00 0.00 0.00 0.00 0.00 0.00 0.00 0.00 0.00 0.00 0.00 0.00 0.00 0.00 0.00 0.00
0.00 0.00 0.00 0.01 0.01 0.02 0.03 0.04 0.05 0.03 0.01 0.04 0.10 0.13 0.16 0.26 0.31 0.30 0.25 0.23 0.20 0.13 0.06 0.06 0.07 0.05 0.01 0.00 0.00 0.00 0.00 0.00 0.00 0.00 0.00 0.00 0.00 0.00 0.00 0.00 0.00 0.00 0.00
0.00 0.00 0.00 0.00 0.00 0.00 0.01 0.01 0.01 0.01 0.01 0.02 0.06 0.12 0.21 0.31 0.44 0.37 0.27 0.24 0.21 0.18 0.13 0.10 0.09 0.07 0.05 0.05 0.04 0.01 0.00 0.00 0.00 0.00 0.00 0.00 0.00 0.00 0.00 0.00 0.00 0.00 0.00

GEFSSE_prec_meanprec_012.txt.gz
QPF
0.00 0.00 0.00 0.01 0.03 0.05 0.09 0.11 0.12 0.09 0.08 0.05 0.02 0.02 0.02 0.03 0.04 0.04 0.03 0.02 0.02 0.03 0.05 0.06 0.08 0.11 0.10 0.08 0.05 0.03 0.02 0.01 0.01 0.02 0.03 0.05 0.04 0.04 0.05 0.05 0.05 0.03 0.03
0.00 0.00 0.00 0.01 0.01 0.02 0.05 0.07 0.13 0.14 0.15 0.09 0.03 0.02 0.03 0.04 0.06 0.06 0.02 0.01 0.02 0.02 0.04 0.05 0.08 0.10 0.10 0.08 0.06 0.06 0.04 0.01 0.00 0.00 0.01 0.01 0.00 0.01 0.03 0.04 0.02 0.05 0.04
0.00 0.00 0.00 0.01 0.01 0.02 0.03 0.06 0.12 0.12 0.16 0.13 0.08 0.06 0.05 0.04 0.08 0.08 0.04 0.04 0.05 0.03 0.02 0.03 0.08 0.10 0.09 0.08 0.08 0.08 0.06 0.02 0.00 0.00 0.00 0.01 0.01 0.00 0.01 0.02 0.03 0.04 0.03
0.00 0.00 0.00 0.01 0.02 0.03 0.04 0.05 0.11 0.11 0.14 0.14 0.09 0.04 0.02 0.04 0.06 0.06 0.13 0.16 0.10 0.03 0.01 0.02 0.07 0.08 0.06 0.06 0.06 0.06 0.06 0.04 0.01 0.00 0.00 0.01 0.02 0.00 0.01 0.03 0.03 0.03 0.02
0.00 0.00 0.01 0.03 0.03 0.03 0.04 0.08 0.11 0.11 0.13 0.11 0.07 0.03 0.02 0.04 0.08 0.11 0.19 0.17 0.08 0.02 0.00 0.01 0.04 0.05 0.04 0.04 0.04 0.04 0.04 0.04 0.03 0.01 0.01 0.02 0.05 0.02 0.01 0.02 0.04 0.02 0.02
0.00 0.00 0.02 0.05 0.03 0.04 0.09 0.14 0.12 0.13 0.13 0.13 0.07 0.02 0.02 0.05 0.07 0.10 0.15 0.14 0.06 0.01 0.00 0.00 0.01 0.02 0.03 0.03 0.03 0.04 0.01 0.01 0.01 0.01 0.03 0.05 0.09 0.03 0.01 0.03 0.06 0.05 0.03
0.00 0.00 0.01 0.04 0.04 0.06 0.12 0.17 0.15 0.16 0.14 0.13 0.06 0.02 0.02 0.03 0.05 0.08 0.10 0.09 0.02 0.00 0.00 0.00 0.01 0.01 0.02 0.02 0.02 0.02 0.01 0.00 0.00 0.00 0.02 0.07 0.08 0.02 0.03 0.07 0.09 0.07 0.05
0.00 0.00 0.01 0.04 0.08 0.10 0.12 0.15 0.15 0.14 0.15 0.13 0.05 0.02 0.03 0.04 0.05 0.07 0.08 0.06 0.01 0.00 0.00 0.00 0.01 0.02 0.02 0.02 0.01 0.01 0.01 0.00 0.00 0.00 0.01 0.06 0.06 0.05 0.05 0.07 0.09 0.07 0.06
0.00 0.00 0.01 0.04 0.06 0.12 0.15 0.13 0.11 0.10 0.13 0.12 0.06 0.04 0.06 0.05 0.05 0.05 0.05 0.02 0.00 0.00 0.00 0.00 0.01 0.01 0.01 0.01 0.01 0.01 0.00 0.00 0.00 0.00 0.00 0.02 0.02 0.03 0.03 0.05 0.05 0.04 0.05
0.00 0.00 0.01 0.02 0.04 0.06 0.08 0.08 0.09 0.09 0.11 0.13 0.08 0.07 0.07 0.05 0.04 0.04 0.01 0.00 0.00 0.00 0.00 0.00 0.01 0.01 0.01 0.01 0.01 0.00 0.00 0.00 0.00 0.00 0.00 0.00 0.00 0.00 0.00 0.01 0.01 0.01 0.02
0.00 0.00 0.00 0.00 0.01 0.03 0.05 0.05 0.10 0.11 0.12 0.13 0.10 0.09 0.08 0.06 0.03 0.02 0.00 0.00 0.00 0.00 0.00 0.01 0.03 0.02 0.01 0.01 0.00 0.00 0.00 0.00 0.00 0.00 0.01 0.01 0.00 0.00 0.00 0.00 0.00 0.00 0.00
0.00 0.00 0.00 0.00 0.00 0.01 0.01 0.04 0.06 0.05 0.06 0.08 0.11 0.13 0.06 0.04 0.03 0.01 0.00 0.00 0.00 0.00 0.00 0.02 0.04 0.01 0.00 0.00 0.00 0.00 0.00 0.00 0.00 0.00 0.02 0.04 0.03 0.01 0.00 0.00 0.00 0.00 0.00
0.00 0.00 0.00 0.00 0.00 0.00 0.01 0.03 0.05 0.05 0.05 0.05 0.06 0.05 0.02 0.00 0.00 0.00 0.01 0.01 0.00 0.00 0.00 0.01 0.00 0.00 0.00 0.00 0.00 0.00 0.00 0.00 0.00 0.01 0.02 0.05 0.07 0.05 0.02 0.01 0.01 0.00 0.00
0.00 0.00 0.00 0.00 0.00 0.00 0.00 0.01 0.02 0.03 0.05 0.06 0.04 0.02 0.01 0.00 0.00 0.00 0.01 0.00 0.00 0.00 0.00 0.00 0.00 0.00 0.00 0.00 0.00 0.00 0.00 0.00 0.01 0.04 0.06 0.07 0.14 0.09 0.05 0.04 0.02 0.01 0.02
0.00 0.00 0.00 0.00 0.00 0.00 0.00 0.00 0.00 0.03 0.08 0.12 0.10 0.05 0.01 0.00 0.00 0.00 0.00 0.01 0.00 0.00 0.00 0.00 0.00 0.00 0.00 0.00 0.00 0.00 0.00 0.00 0.01 0.05 0.11 0.14 0.22 0.21 0.11 0.07 0.04 0.03 0.03
0.00 0.00 0.00 0.00 0.00 0.00 0.00 0.00 0.00 0.02 0.07 0.12 0.13 0.09 0.03 0.00 0.00 0.00 0.00 0.00 0.00 0.00 0.00 0.00 0.00 0.00 0.00 0.00 0.00 0.00 0.00 0.00 0.00 0.02 0.09 0.14 0.15 0.13 0.13 0.11 0.07 0.05 0.03
0.00 0.00 0.00 0.00 0.00 0.00 0.00 0.00 0.00 0.01 0.03 0.09 0.12 0.09 0.04 0.00 0.00 0.00 0.00 0.00 0.00 0.00 0.00 0.00 0.00 0.00 0.00 0.00 0.00 0.00 0.00 0.00 0.00 0.00 0.01 0.04 0.05 0.03 0.05 0.09 0.11 0.09 0.08
0.00 0.00 0.00 0.00 0.00 0.00 0.00 0.00 0.00 0.00 0.02 0.10 0.13 0.09 0.06 0.01 0.00 0.00 0.00 0.00 0.01 0.00 0.01 0.01 0.01 0.01 0.00 0.00 0.00 0.00 0.00 0.00 0.00 0.00 0.00 0.00 0.00 0.00 0.00 0.01 0.02 0.04 0.08
0.00 0.00 0.00 0.01 0.01 0.01 0.01 0.01 0.01 0.01 0.03 0.12 0.16 0.15 0.12 0.03 0.01 0.01 0.01 0.00 0.01 0.02 0.04 0.03 0.02 0.01 0.00 0.00 0.00 0.00 0.00 0.00 0.00 0.00 0.00 0.00 0.00 0.00 0.00 0.00 0.00 0.00 0.01
0.00 0.00 0.00 0.02 0.06 0.08 0.08 0.10 0.14 0.10 0.11 0.17 0.20 0.22 0.15 0.08 0.05 0.05 0.02 0.01 0.02 0.07 0.10 0.05 0.03 0.02 0.01 0.00 0.00 0.00 0.00 0.00 0.00 0.00 0.00 0.00 0.00 0.00 0.00 0.00 0.00 0.00 0.00
0.00 0.00 0.00 0.01 0.04 0.09 0.09 0.11 0.22 0.23 0.24 0.25 0.28 0.26 0.19 0.14 0.15 0.16 0.08 0.03 0.03 0.07 0.10 0.09 0.05 0.03 0.02 0.01 0.00 0.00 0.00 0.00 0.00 0.00 0.00 0.00 0.00 0.00 0.00 0.00 0.00 0.00 0.00
0.00 0.00 0.00 0.00 0.02 0.05 0.06 0.08 0.15 0.20 0.17 0.16 0.22 0.26 0.25 0.21 0.22 0.22 0.17 0.10 0.08 0.10 0.11 0.08 0.06 0.04 0.03 0.01 0.01 0.02 0.01 0.00 0.00 0.00 0.00 0.00 0.00 0.00 0.00 0.00 0.00 0.00 0.00
0.00 0.00 0.00 0.00 0.00 0.02 0.06 0.07 0.09 0.08 0.08 0.08 0.12 0.19 0.23 0.27 0.26 0.25 0.21 0.16 0.11 0.09 0.09 0.09 0.06 0.03 0.03 0.01 0.00 0.01 0.03 0.03 0.00 0.00 0.00 0.00 0.00 0.00 0.00 0.00 0.00 0.00 0.00
0.00 0.00 0.00 0.00 0.00 0.01 0.04 0.06 0.07 0.12 0.13 0.11 0.12 0.13 0.16 0.16 0.19 0.21 0.19 0.18 0.13 0.09 0.08 0.08 0.06 0.04 0.03 0.01 0.00 0.00 0.01 0.01 0.01 0.00 0.00 0.00 0.00 0.00 0.00 0.00 0.00 0.00 0.00
0.00 0.00 0.00 0.00 0.00 0.01 0.02 0.03 0.03 0.04 0.04 0.03 0.02 0.04 0.07 0.09 0.09 0.11 0.13 0.14 0.13 0.11 0.07 0.06 0.06 0.06 0.04 0.02 0.00 0.00 0.00 0.00 0.00 0.01 0.02 0.01 0.00 0.00 0.00 0.00 0.00 0.00 0.00
0.00 0.00 0.00 0.00 0.00 0.00 0.01 0.01 0.01 0.01 0.01 0.01 0.01 0.02 0.02 0.03 0.03 0.04 0.07 0.12 0.15 0.16 0.12 0.09 0.09 0.10 0.08 0.05 0.03 0.01 0.01 0.00 0.00 0.01 0.03 0.03 0.01 0.00 0.00 0.00 0.00 0.00 0.00

GEFSSE_prec_meanprec_018.txt.gz
QPF
0.00 0.00 0.00 0.00 0.00 0.00 0.00 0.00 0.01 0.03 0.03 0.04 0.03 0.02 0.02 0.01 0.01 0.01 0.01 0.01 0.01 0.01 0.01 0.02 0.03 0.02 0.01 0.01 0.02 0.02 0.04 0.05 0.06 0.07 0.10 0.06 0.01 0.00 0.00 0.00 0.02 0.03 0.01
0.00 0.00 0.00 0.01 0.01 0.00 0.01 0.01 0.01 0.02 0.04 0.05 0.04 0.03 0.03 0.02 0.02 0.01 0.01 0.00 0.00 0.00 0.01 0.03 0.04 0.03 0.02 0.01 0.02 0.04 0.03 0.02 0.04 0.04 0.06 0.04 0.01 0.00 0.00 0.01 0.02 0.03 0.01
0.00 0.00 0.00 0.01 0.02 0.01 0.01 0.01 0.01 0.03 0.05 0.06 0.06 0.04 0.03 0.02 0.03 0.02 0.01 0.01 0.01 0.01 0.01 0.04 0.05 0.05 0.03 0.02 0.04 0.06 0.06 0.03 0.02 0.03 0.10 0.22 0.07 0.01 0.01 0.02 0.03 0.01 0.01
0.00 0.00 0.01 0.01 0.02 0.01 0.02 0.03 0.04 0.05 0.05 0.04 0.05 0.04 0.03 0.03 0.03 0.03 0.02 0.01 0.01 0.00 0.01 0.03 0.05 0.04 0.02 0.03 0.06 0.07 0.06 0.03 0.02 0.03 0.15 0.24 0.16 0.03 0.03 0.06 0.06 0.01 0.01
0.00 0.00 0.02 0.02 0.02 0.02 0.03 0.07 0.09 0.07 0.05 0.04 0.05 0.04 0.03 0.04 0.03 0.02 0.02 0.01 0.00 0.00 0.00 0.02 0.02 0.02 0.02 0.02 0.04 0.06 0.05 0.03 0.04 0.10 0.18 0.23 0.21 0.05 0.02 0.05 0.04 0.01 0.02
0.00 0.00 0.02 0.01 0.01 0.03 0.05 0.11 0.12 0.09 0.08 0.06 0.05 0.03 0.04 0.04 0.03 0.01 0.01 0.01 0.00 0.00 0.00 0.00 0.01 0.02 0.02 0.02 0.02 0.03 0.03 0.05 0.08 0.12 0.17 0.20 0.18 0.05 0.03 0.05 0.04 0.04 0.02
0.00 0.00 0.01 0.01 0.01 0.02 0.04 0.08 0.11 0.12 0.12 0.09 0.04 0.04 0.06 0.05 0.02 0.02 0.01 0.01 0.00 0.00 0.00 0.00 0.01 0.02 0.02 0.01 0.01 0.01 0.01 0.03 0.05 0.09 0.16 0.20 0.14 0.05 0.04 0.06 0.07 0.06 0.04
0.00 0.00 0.00 0.00 0.01 0.01 0.02 0.04 0.08 0.13 0.13 0.08 0.03 0.04 0.04 0.03 0.02 0.01 0.01 0.01 0.00 0.00 0.00 0.00 0.01 0.02 0.01 0.00 0.00 0.00 0.00 0.01 0.01 0.04 0.10 0.15 0.12 0.06 0.04 0.07 0.11 0.11 0.07
0.00 0.00 0.00 0.00 0.00 0.00 0.01 0.03 0.07 0.11 0.11 0.09 0.05 0.04 0.03 0.02 0.01 0.01 0.00 0.00 0.00 0.00 0.00 0.00 0.01 0.01 0.00 0.00 0.00 0.00 0.00 0.00 0.00 0.02 0.04 0.06 0.07 0.05 0.04 0.06 0.08 0.10 0.09
0.00 0.00 0.00 0.00 0.00 0.00 0.00 0.01 0.04 0.07 0.08 0.08 0.05 0.04 0.02 0.01 0.01 0.00 0.00 0.00 0.00 0.00 0.00 0.00 0.00 0.00 0.00 0.00 0.00 0.00 0.00 0.00 0.01 0.01 0.01 0.01 0.01 0.02 0.01 0.01 0.02 0.03 0.03
0.00 0.00 0.00 0.00 0.00 0.00 0.01 0.00 0.02 0.04 0.04 0.05 0.04 0.03 0.02 0.05 0.02 0.01 0.00 0.00 0.00 0.00 0.01 0.00 0.00 0.00 0.00 0.00 0.00 0.00 0.00 0.01 0.01 0.03 0.03 0.00 0.00 0.00 0.00 0.00 0.00 0.01 0.01
0.00 0.00 0.00 0.00 0.00 0.00 0.03 0.04 0.06 0.06 0.02 0.02 0.02 0.01 0.04 0.07 0.05 0.01 0.00 0.00 0.00 0.00 0.00 0.00 0.00 0.00 0.00 0.00 0.00 0.00 0.01 0.00 0.01 0.04 0.02 0.01 0.01 0.01 0.00 0.00 0.00 0.00 0.00
0.00 0.00 0.00 0.00 0.00 0.00 0.05 0.06 0.07 0.09 0.08 0.05 0.02 0.00 0.04 0.02 0.01 0.00 0.00 0.00 0.00 0.00 0.00 0.00 0.00 0.00 0.00 0.00 0.00 0.00 0.00 0.00 0.02 0.04 0.01 0.02 0.03 0.03 0.02 0.01 0.01 0.01 0.00
0.00 0.00 0.00 0.00 0.00 0.00 0.00 0.01 0.03 0.05 0.07 0.08 0.02 0.00 0.01 0.01 0.01 0.00 0.00 0.00 0.00 0.01 0.01 0.00 0.00 0.00 0.00 0.00 0.00 0.00 0.00 0.02 0.07 0.09 0.02 0.02 0.03 0.03 0.02 0.02 0.02 0.02 0.02
0.00 0.00 0.00 0.00 0.00 0.00 0.00 0.00 0.01 0.03 0.04 0.04 0.03 0.01 0.00 0.00 0.01 0.00 0.00 0.00 0.00 0.00 0.00 0.00 0.00 0.00 0.00 0.00 0.00 0.00 0.01 0.03 0.09 0.08 0.05 0.05 0.06 0.09 0.06 0.05 0.02 0.02 0.02
0.00 0.00 0.00 0.00 0.00 0.00 0.00 0.00 0.00 0.01 0.02 0.02 0.02 0.01 0.00 0.00 0.00 0.00 0.00 0.00 0.00 0.00 0.00 0.00 0.00 0.00 0.00 0.00 0.00 0.00 0.01 0.02 0.06 0.09 0.11 0.12 0.08 0.10 0.11 0.10 0.07 0.05 0.03
0.00 0.00 0.00 0.00 0.00 0.00 0.00 0.00 0.00 0.00 0.01 0.01 0.01 0.00 0.00 0.00 0.00 0.00 0.00 0.00 0.00 0.00 0.00 0.00 0.00 0.00 0.00 0.00 0.00 0.00 0.00 0.01 0.02 0.05 0.07 0.12 0.06 0.03 0.04 0.06 0.08 0.08 0.07
0.00 0.00 0.00 0.00 0.00 0.00 0.00 0.00 0.00 0.00 0.01 0.01 0.00 0.01 0.00 0.00 0.00 0.00 0.00 0.00 0.00 0.00 0.00 0.00 0.00 0.00 0.00 0.00 0.00 0.00 0.00 0.00 0.00 0.00 0.01 0.02 0.01 0.00 0.00 0.00 0.01 0.02 0.05
0.00 0.00 0.00 0.00 0.00 0.00 0.00 0.00 0.00 0.01 0.02 0.02 0.01 0.01 0.01 0.00 0.00 0.00 0.00 0.00 0.00 0.00 0.01 0.00 0.00 0.00 0.00 0.00 0.00 0.00 0.00 0.00 0.00 0.00 0.00 0.00 0.00 0.00 0.00 0.00 0.00 0.00 0.00
0.00 0.00 0.00 0.00 0.00 0.01 0.03 0.07 0.10 0.11 0.18 0.19 0.12 0.06 0.01 0.01 0.00 0.01 0.00 0.00 0.00 0.02 0.04 0.03 0.04 0.03 0.01 0.00 0.00 0.00 0.00 0.00 0.00 0.00 0.00 0.00 0.00 0.00 0.00 0.00 0.00 0.00 0.00
0.00 0.00 0.00 0.00 0.00 0.02 0.08 0.17 0.24 0.28 0.25 0.23 0.22 0.12 0.07 0.02 0.01 0.02 0.01 0.01 0.02 0.06 0.05 0.05 0.09 0.09 0.04 0.01 0.02 0.04 0.01 0.00 0.00 0.00 0.00 0.00 0.00 0.00 0.00 0.00 0.00 0.00 0.00
0.00 0.00 0.00 0.00 0.00 0.01 0.04 0.08 0.13 0.17 0.13 0.13 0.14 0.12 0.08 0.04 0.02 0.02 0.02 0.03 0.06 0.11 0.14 0.13 0.19 0.19 0.10 0.03 0.06 0.14 0.08 0.02 0.00 0.00 0.00 0.00 0.00 0.00 0.00 0.00 0.00 0.00 0.00
0.00 0.00 0.00 0.00 0.00 0.00 0.01 0.03 0.06 0.14 0.17 0.22 0.22 0.20 0.16 0.10 0.05 0.03 0.03 0.04 0.06 0.09 0.13 0.18 0.22 0.25 0.20 0.09 0.04 0.10 0.17 0.14 0.04 0.00 0.00 0.00 0.00 0.00 0.00 0.00 0.00 0.00 0.00
0.00 0.00 0.00 0.00 0.00 0.00 0.00 0.02 0.06 0.12 0.15 0.14 0.13 0.17 0.13 0.11 0.09 0.08 0.07 0.08 0.07 0.07 0.10 0.13 0.16 0.22 0.25 0.18 0.09 0.04 0.05 0.08 0.06 0.03 0.01 0.00 0.00 0.00 0.00 0.00 0.00 0.00 0.00
0.00 0.00 0.00 0.00 0.00 0.00 0.00 0.01 0.04 0.07 0.08 0.07 0.07 0.15 0.14 0.11 0.11 0.09 0.09 0.10 0.08 0.08 0.08 0.12 0.17 0.22 0.23 0.20 0.15 0.08 0.04 0.03 0.02 0.07 0.08 0.02 0.00 0.00 0.00 0.00 0.00 0.00 0.00
0.00 0.00 0.00 0.00 0.00 0.00 0.00 0.00 0.01 0.03 0.04 0.05 0.07 0.11 0.13 0.13 0.12 0.11 0.10 0.10 0.10 0.10 0.11 0.14 0.18 0.24 0.24 0.25 0.19 0.12 0.08 0.05 0.02 0.04 0.10 0.08 0.03 0.00 0.00 0.00 0.00 0.00 0.00

GEFSSE_prec_meanprec_024.txt.gz
QPF
0.00 0.00 0.00 0.00 0.00 0.00 0.00 0.00 0.01 0.01 0.01 0.00 0.00 0.01 0.00 0.00 0.00 0.00 0.00 0.00 0.00 0.00 0.00 0.01 0.01 0.01 0.01 0.01 0.02 0.04 0.05 0.08 0.11 0.16 0.17 0.18 0.16 0.13 0.14 0.14 0.06 0.02 0.02
0.00 0.00 0.00 0.00 0.00 0.00 0.00 0.00 0.01 0.01 0.01 0.01 0.01 0.01 0.01 0.01 0.00 0.00 0.00 0.00 0.00 0.00 0.00 0.01 0.02 0.02 0.04 0.04 0.04 0.05 0.06 0.09 0.14 0.20 0.22 0.21 0.19 0.16 0.13 0.12 0.05 0.03 0.04
0.00 0.00 0.00 0.00 0.00 0.00 0.00 0.00 0.01 0.01 0.01 0.01 0.02 0.02 0.02 0.01 0.00 0.00 0.00 0.00 0.00 0.00 0.00 0.02 0.04 0.05 0.08 0.08 0.07 0.06 0.05 0.05 0.08 0.14 0.19 0.15 0.14 0.15 0.10 0.06 0.06 0.05 0.05
0.00 0.00 0.00 0.00 0.00 0.00 0.00 0.00 0.01 0.01 0.01 0.01 0.02 0.02 0.02 0.01 0.01 0.01 0.00 0.00 0.00 0.00 0.01 0.02 0.06 0.07 0.08 0.08 0.06 0.04 0.02 0.03 0.05 0.09 0.07 0.07 0.09 0.11 0.09 0.03 0.04 0.04 0.04
0.00 0.00 0.00 0.00 0.00 0.00 0.00 0.01 0.01 0.01 0.00 0.01 0.02 0.01 0.01 0.01 0.01 0.01 0.00 0.00 0.00 0.00 0.01 0.03 0.05 0.06 0.05 0.04 0.03 0.02 0.02 0.03 0.06 0.07 0.04 0.04 0.04 0.07 0.06 0.02 0.02 0.02 0.03
0.00 0.00 0.00 0.00 0.00 0.00 0.00 0.00 0.01 0.01 0.01 0.01 0.01 0.01 0.01 0.01 0.01 0.01 0.01 0.00 0.00 0.00 0.01 0.02 0.04 0.05 0.02 0.02 0.02 0.03 0.04 0.05 0.05 0.02 0.03 0.03 0.04 0.06 0.04 0.02 0.01 0.02 0.04
0.00 0.00 0.00 0.00 0.00 0.00 0.00 0.00 0.00 0.01 0.01 0.01 0.01 0.01 0.01 0.01 0.01 0.01 0.00 0.00 0.00 0.00 0.00 0.01 0.02 0.03 0.01 0.01 0.00 0.01 0.02 0.02 0.01 0.01 0.03 0.05 0.05 0.06 0.03 0.02 0.01 0.02 0.03
0.00 0.00 0.00 0.01 0.00 0.00 0.00 0.00 0.00 0.00 0.01 0.01 0.01 0.01 0.01 0.01 0.01 0.01 0.00 0.00 0.00 0.00 0.00 0.00 0.01 0.01 0.00 0.00 0.00 0.00 0.01 0.01 0.01 0.01 0.02 0.04 0.10 0.07 0.02 0.02 0.02 0.02 0.02
0.01 0.00 0.00 0.00 0.00 0.00 0.00 0.00 0.00 0.00 0.01 0.01 0.01 0.01 0.00 0.01 0.01 0.00 0.00 0.00 0.00 0.00 0.00 0.00 0.00 0.00 0.00 0.00 0.00 0.00 0.00 0.00 0.01 0.01 0.01 0.04 0.09 0.06 0.02 0.02 0.02 0.02 0.02
0.01 0.00 0.00 0.00 0.00 0.00 0.00 0.00 0.00 0.00 0.00 0.00 0.00 0.00 0.01 0.01 0.01 0.00 0.00 0.00 0.00 0.00 0.00 0.00 0.00 0.00 0.00 0.00 0.00 0.00 0.00 0.00 0.01 0.01 0.01 0.02 0.04 0.02 0.01 0.01 0.01 0.01 0.01
0.00 0.00 0.00 0.00 0.00 0.00 0.00 0.00 0.00 0.00 0.00 0.00 0.00 0.01 0.00 0.00 0.00 0.00 0.00 0.00 0.00 0.00 0.00 0.00 0.00 0.00 0.00 0.00 0.00 0.00 0.00 0.00 0.00 0.00 0.00 0.01 0.01 0.01 0.00 0.00 0.00 0.00 0.00
0.00 0.00 0.00 0.00 0.00 0.00 0.00 0.00 0.00 0.00 0.00 0.00 0.00 0.00 0.01 0.01 0.00 0.00 0.00 0.00 0.00 0.00 0.00 0.00 0.00 0.00 0.00 0.00 0.00 0.00 0.00 0.01 0.01 0.00 0.00 0.01 0.00 0.00 0.00 0.00 0.00 0.00 0.00
0.00 0.00 0.00 0.00 0.00 0.00 0.00 0.00 0.00 0.00 0.00 0.00 0.00 0.00 0.01 0.01 0.00 0.00 0.00 0.00 0.00 0.00 0.00 0.00 0.00 0.00 0.00 0.00 0.00 0.00 0.01 0.00 0.01 0.00 0.01 0.02 0.02 0.02 0.01 0.00 0.00 0.00 0.00
0.00 0.00 0.01 0.00 0.00 0.01 0.00 0.00 0.00 0.00 0.00 0.00 0.00 0.01 0.01 0.01 0.01 0.00 0.00 0.00 0.00 0.00 0.00 0.00 0.00 0.00 0.00 0.00 0.01 0.03 0.01 0.00 0.00 0.00 0.01 0.03 0.05 0.04 0.03 0.02 0.01 0.01 0.01
0.00 0.00 0.00 0.00 0.00 0.01 0.01 0.00 0.00 0.00 0.00 0.00 0.00 0.01 0.01 0.01 0.01 0.00 0.00 0.00 0.00 0.00 0.00 0.00 0.00 0.00 0.00 0.00 0.03 0.04 0.02 0.01 0.01 0.01 0.01 0.03 0.07 0.08 0.04 0.02 0.01 0.01 0.01
0.00 0.00 0.00 0.00 0.00 0.00 0.00 0.00 0.00 0.00 0.00 0.00 0.00 0.01 0.01 0.01 0.02 0.01 0.01 0.00 0.00 0.01 0.00 0.00 0.00 0.00 0.00 0.00 0.01 0.02 0.02 0.01 0.01 0.02 0.02 0.04 0.07 0.11 0.11 0.06 0.03 0.02 0.02
0.00 0.00 0.00 0.00 0.00 0.00 0.00 0.01 0.00 0.00 0.00 0.00 0.00 0.01 0.01 0.01 0.02 0.01 0.02 0.01 0.00 0.00 0.00 0.00 0.01 0.00 0.00 0.00 0.00 0.00 0.00 0.00 0.01 0.01 0.02 0.02 0.03 0.07 0.10 0.09 0.05 0.04 0.02
0.00 0.00 0.00 0.00 0.00 0.00 0.01 0.01 0.01 0.02 0.03 0.03 0.02 0.02 0.03 0.02 0.01 0.01 0.02 0.02 0.01 0.00 0.00 0.01 0.01 0.01 0.00 0.00 0.00 0.00 0.00 0.00 0.00 0.00 0.01 0.01 0.00 0.01 0.03 0.04 0.03 0.02 0.02
0.00 0.00 0.00 0.00 0.00 0.00 0.01 0.02 0.05 0.08 0.12 0.14 0.12 0.08 0.07 0.06 0.03 0.02 0.02 0.03 0.02 0.01 0.01 0.00 0.01 0.01 0.00 0.00 0.00 0.00 0.00 0.00 0.00 0.00 0.00 0.00 0.00 0.00 0.00 0.00 0.00 0.00 0.00
0.00 0.00 0.00 0.00 0.01 0.02 0.04 0.06 0.12 0.20 0.30 0.44 0.41 0.22 0.11 0.09 0.08 0.05 0.03 0.04 0.04 0.02 0.01 0.01 0.01 0.01 0.01 0.01 0.00 0.00 0.00 0.00 0.00 0.00 0.00 0.00 0.00 0.00 0.00 0.00 0.00 0.00 0.00
0.00 0.00 0.00 0.01 0.01 0.02 0.04 0.08 0.16 0.20 0.23 0.30 0.31 0.24 0.15 0.12 0.13 0.14 0.10 0.08 0.07 0.04 0.02 0.03 0.04 0.04 0.04 0.03 0.02 0.01 0.00 0.00 0.00 0.00 0.00 0.00 0.00 0.00 0.00 0.00 0.00 0.00 0.00
0.00 0.00 0.01 0.01 0.01 0.02 0.05 0.10 0.13 0.13 0.13 0.15 0.17 0.17 0.15 0.13 0.17 0.24 0.23 0.18 0.13 0.09 0.07 0.07 0.08 0.10 0.11 0.09 0.09 0.06 0.02 0.01 0.00 0.00 0.00 0.00 0.00 0.00 0.00 0.00 0.00 0.00 0.00
0.00 0.00 0.01 0.00 0.00 0.02 0.05 0.07 0.07 0.06 0.06 0.08 0.10 0.10 0.12 0.15 0.20 0.27 0.30 0.26 0.19 0.16 0.16 0.16 0.17 0.16 0.15 0.15 0.14 0.11 0.03 0.01 0.00 0.00 0.00 0.00 0.00 0.00 0.00 0.00 0.00 0.00 0.00
0.01 0.01 0.00 0.00 0.00 0.01 0.03 0.03 0.02 0.01 0.02 0.04 0.05 0.07 0.10 0.15 0.19 0.22 0.28 0.31 0.27 0.23 0.24 0.23 0.21 0.18 0.15 0.13 0.12 0.12 0.09 0.06 0.02 0.00 0.00 0.00 0.00 0.00 0.00 0.00 0.00 0.00 0.00
0.01 0.01 0.01 0.00 0.00 0.01 0.01 0.00 0.00 0.01 0.01 0.03 0.05 0.06 0.07 0.09 0.13 0.17 0.23 0.28 0.29 0.30 0.31 0.31 0.23 0.17 0.14 0.11 0.11 0.15 0.19 0.19 0.10 0.03 0.00 0.00 0.00 0.00 0.00 0.00 0.00 0.00 0.00
0.03 0.02 0.02 0.01 0.00 0.00 0.00 0.00 0.00 0.00 0.01 0.02 0.04 0.05 0.04 0.05 0.07 0.10 0.14 0.17 0.19 0.22 0.26 0.28 0.25 0.22 0.16 0.12 0.09 0.10 0.16 0.21 0.20 0.13 0.05 0.01 0.00 0.00 0.00 0.00 0.00 0.00 0.00

GEFSSE_prec_meanprec_030.txt.gz
QPF
0.00 0.00 0.02 0.01 0.01 0.01 0.02 0.02 0.02 0.01 0.01 0.02 0.03 0.03 0.03 0.01 0.00 0.00 0.00 0.01 0.01 0.01 0.01 0.01 0.02 0.02 0.02 0.02 0.03 0.03 0.04 0.05 0.05 0.04 0.03 0.02 0.02 0.02 0.06 0.09 0.05 0.03 0.04
0.00 0.00 0.02 0.03 0.02 0.02 0.01 0.02 0.01 0.01 0.02 0.03 0.04 0.04 0.02 0.00 0.00 0.00 0.00 0.01 0.01 0.00 0.00 0.01 0.02 0.03 0.03 0.03 0.04 0.04 0.04 0.03 0.05 0.05 0.03 0.02 0.03 0.03 0.07 0.09 0.05 0.03 0.04
0.00 0.00 0.01 0.02 0.02 0.02 0.03 0.02 0.01 0.01 0.02 0.03 0.03 0.02 0.01 0.00 0.00 0.00 0.00 0.00 0.00 0.00 0.00 0.01 0.03 0.03 0.04 0.04 0.04 0.03 0.05 0.05 0.05 0.03 0.02 0.01 0.03 0.05 0.06 0.07 0.06 0.05 0.05
0.00 0.00 0.00 0.01 0.02 0.02 0.03 0.03 0.02 0.01 0.02 0.03 0.03 0.01 0.00 0.00 0.00 0.00 0.00 0.00 0.00 0.00 0.00 0.01 0.03 0.04 0.04 0.05 0.03 0.04 0.07 0.09 0.10 0.05 0.01 0.02 0.04 0.05 0.07 0.07 0.05 0.04 0.05
0.00 0.00 0.00 0.01 0.01 0.02 0.03 0.04 0.03 0.03 0.03 0.03 0.03 0.01 0.01 0.01 0.00 0.00 0.00 0.00 0.00 0.00 0.00 0.01 0.03 0.03 0.04 0.04 0.05 0.06 0.09 0.14 0.16 0.07 0.03 0.03 0.04 0.05 0.07 0.06 0.06 0.06 0.05
0.00 0.00 0.00 0.01 0.01 0.02 0.04 0.04 0.04 0.04 0.03 0.03 0.03 0.03 0.02 0.01 0.00 0.00 0.00 0.00 0.00 0.00 0.00 0.01 0.03 0.03 0.04 0.04 0.04 0.05 0.08 0.12 0.10 0.04 0.04 0.03 0.03 0.05 0.05 0.06 0.07 0.07 0.06
0.00 0.00 0.00 0.01 0.01 0.02 0.03 0.03 0.03 0.03 0.02 0.02 0.02 0.03 0.03 0.03 0.00 0.00 0.00 0.00 0.00 0.00 0.00 0.00 0.01 0.02 0.03 0.03 0.04 0.04 0.06 0.06 0.02 0.02 0.01 0.01 0.02 0.05 0.06 0.07 0.07 0.07 0.06
0.00 0.00 0.01 0.01 0.01 0.02 0.03 0.04 0.03 0.02 0.01 0.01 0.02 0.03 0.03 0.02 0.01 0.00 0.00 0.00 0.00 0.00 0.00 0.00 0.00 0.01 0.01 0.02 0.03 0.04 0.07 0.05 0.01 0.01 0.01 0.01 0.05 0.07 0.07 0.08 0.08 0.07 0.07
0.00 0.00 0.01 0.00 0.01 0.02 0.03 0.04 0.04 0.02 0.02 0.03 0.02 0.02 0.02 0.02 0.01 0.00 0.00 0.00 0.00 0.00 0.00 0.00 0.00 0.00 0.00 0.01 0.01 0.03 0.04 0.04 0.01 0.00 0.01 0.03 0.07 0.07 0.07 0.10 0.11 0.10 0.09
0.01 0.00 0.00 0.00 0.00 0.01 0.01 0.04 0.05 0.03 0.03 0.04 0.02 0.01 0.01 0.01 0.00 0.00 0.00 0.00 0.00 0.00 0.00 0.00 0.00 0.00 0.00 0.00 0.00 0.02 0.04 0.02 0.01 0.01 0.01 0.04 0.08 0.06 0.05 0.07 0.08 0.09 0.08
0.00 0.00 0.00 0.00 0.00 0.00 0.00 0.02 0.03 0.03 0.04 0.03 0.02 0.02 0.01 0.00 0.00 0.00 0.00 0.00 0.00 0.00 0.00 0.00 0.00 0.00 0.00 0.00 0.01 0.02 0.02 0.01 0.01 0.01 0.01 0.03 0.05 0.04 0.04 0.03 0.03 0.04 0.05
0.00 0.00 0.00 0.00 0.00 0.00 0.00 0.00 0.00 0.01 0.01 0.01 0.00 0.00 0.00 0.00 0.00 0.00 0.00 0.00 0.00 0.00 0.00 0.00 0.00 0.00 0.00 0.00 0.00 0.01 0.00 0.00 0.00 0.00 0.00 0.02 0.02 0.02 0.01 0.01 0.01 0.01 0.02
0.00 0.00 0.00 0.00 0.00 0.00 0.00 0.00 0.00 0.00 0.00 0.00 0.00 0.00 0.00 0.00 0.00 0.00 0.00 0.00 0.00 0.00 0.00 0.00 0.00 0.00 0.00 0.00 0.00 0.00 0.00 0.00 0.00 0.00 0.00 0.01 0.01 0.01 0.00 0.00 0.00 0.00 0.01
0.00 0.00 0.00 0.00 0.00 0.00 0.00 0.00 0.00 0.00 0.00 0.00 0.00 0.00 0.00 0.00 0.00 0.00 0.00 0.00 0.00 0.00 0.00 0.00 0.00 0.00 0.00 0.00 0.00 0.00 0.00 0.00 0.00 0.00 0.01 0.03 0.04 0.03 0.01 0.01 0.00 0.00 0.01
0.00 0.00 0.00 0.00 0.00 0.00 0.00 0.00 0.00 0.00 0.00 0.00 0.00 0.00 0.00 0.00 0.00 0.00 0.00 0.00 0.00 0.00 0.00 0.00 0.00 0.00 0.00 0.00 0.00 0.01 0.00 0.00 0.00 0.00 0.01 0.04 0.06 0.06 0.04 0.02 0.02 0.01 0.01
0.00 0.00 0.00 0.00 0.00 0.00 0.00 0.00 0.00 0.00 0.00 0.00 0.00 0.00 0.00 0.00 0.00 0.00 0.00 0.00 0.00 0.00 0.00 0.00 0.00 0.00 0.00 0.00 0.01 0.00 0.00 0.00 0.00 0.00 0.00 0.02 0.04 0.06 0.07 0.05 0.03 0.02 0.01
0.00 0.00 0.00 0.00 0.00 0.00 0.00 0.00 0.00 0.00 0.00 0.00 0.00 0.00 0.00 0.00 0.00 0.01 0.00 0.00 0.00 0.00 0.00 0.00 0.00 0.00 0.00 0.00 0.00 0.00 0.00 0.00 0.00 0.00 0.00 0.01 0.02 0.04 0.08 0.09 0.04 0.02 0.01
0.00 0.00 0.00 0.00 0.00 0.00 0.00 0.00 0.01 0.01 0.00 0.00 0.00 0.00 0.00 0.01 0.01 0.02 0.01 0.01 0.00 0.00 0.00 0.00 0.00 0.00 0.00 0.00 0.00 0.00 0.00 0.00 0.00 0.00 0.00 0.00 0.01 0.01 0.04 0.05 0.04 0.02 0.01
0.00 0.00 0.00 0.00 0.00 0.01 0.01 0.01 0.01 0.01 0.00 0.01 0.01 0.02 0.03 0.04 0.05 0.06 0.07 0.07 0.05 0.03 0.02 0.01 0.01 0.00 0.00 0.00 0.00 0.00 0.00 0.00 0.00 0.00 0.00 0.00 0.00 0.00 0.00 0.01 0.01 0.00 0.00
0.00 0.00 0.00 0.00 0.00 0.01 0.01 0.02 0.03 0.02 0.02 0.03 0.04 0.04 0.06 0.08 0.11 0.11 0.14 0.16 0.14 0.10 0.06 0.03 0.02 0.01 0.01 0.01 0.01 0.00 0.00 0.00 0.00 0.00 0.00 0.00 0.00 0.00 0.00 0.00 0.00 0.00 0.00
0.00 0.00 0.00 0.00 0.01 0.01 0.01 0.03 0.06 0.05 0.05 0.04 0.05 0.05 0.08 0.10 0.12 0.12 0.14 0.21 0.23 0.21 0.16 0.11 0.06 0.03 0.02 0.01 0.01 0.01 0.00 0.00 0.00 0.00 0.00 0.00 0.00 0.00 0.00 0.00 0.00 0.00 0.00
0.00 0.00 0.01 0.01 0.02 0.02 0.05 0.08 0.10 0.08 0.06 0.05 0.06 0.06 0.07 0.08 0.11 0.13 0.17 0.23 0.29 0.34 0.32 0.23 0.16 0.10 0.06 0.04 0.03 0.02 0.01 0.00 0.00 0.00 0.00 0.00 0.00 0.00 0.00 0.00 0.00 0.00 0.00
0.02 0.02 0.03 0.04 0.06 0.08 0.12 0.16 0.12 0.09 0.08 0.06 0.07 0.08 0.09 0.08 0.08 0.09 0.14 0.19 0.26 0.32 0.34 0.33 0.29 0.24 0.15 0.10 0.08 0.06 0.04 0.01 0.01 0.00 0.00 0.00 0.00 0.00 0.00 0.00 0.00 0.00 0.00
0.02 0.03 0.05 0.07 0.12 0.17 0.21 0.18 0.13 0.09 0.08 0.07 0.08 0.09 0.10 0.08 0.07 0.09 0.12 0.15 0.19 0.23 0.28 0.35 0.39 0.40 0.32 0.25 0.19 0.12 0.08 0.03 0.01 0.00 0.00 0.00 0.00 0.00 0.00 0.00 0.00 0.00 0.00
0.03 0.04 0.08 0.13 0.18 0.25 0.25 0.22 0.16 0.09 0.06 0.06 0.06 0.06 0.08 0.09 0.09 0.08 0.09 0.11 0.14 0.16 0.20 0.29 0.36 0.43 0.43 0.37 0.31 0.25 0.17 0.09 0.03 0.01 0.00 0.00 0.00 0.00 0.00 0.00 0.00 0.00 0.00
0.07 0.10 0.13 0.19 0.25 0.28 0.26 0.19 0.13 0.07 0.04 0.03 0.03 0.04 0.05 0.06 0.07 0.06 0.07 0.08 0.09 0.09 0.14 0.21 0.28 0.35 0.43 0.43 0.39 0.31 0.22 0.15 0.08 0.05 0.02 0.01 0.00 0.00 0.00 0.00 0.00 0.00 0.00

GEFSSE_prec_meanprec_036.txt.gz
QPF
0.00 0.00 0.01 0.01 0.00 0.00 0.01 0.02 0.02 0.02 0.02 0.02 0.02 0.02 0.01 0.01 0.01 0.01 0.01 0.01 0.02 0.02 0.02 0.03 0.03 0.03 0.03 0.04 0.04 0.05 0.06 0.07 0.06 0.05 0.06 0.04 0.03 0.02 0.02 0.01 0.01 0.03 0.02
0.00 0.00 0.00 0.00 0.00 0.00 0.01 0.01 0.02 0.02 0.02 0.02 0.02 0.02 0.01 0.01 0.01 0.00 0.00 0.01 0.01 0.01 0.02 0.02 0.03 0.03 0.02 0.03 0.04 0.05 0.07 0.07 0.08 0.07 0.06 0.05 0.05 0.04 0.02 0.01 0.01 0.03 0.01
0.00 0.00 0.00 0.00 0.00 0.00 0.01 0.02 0.02 0.03 0.03 0.03 0.03 0.02 0.01 0.00 0.00 0.00 0.00 0.00 0.00 0.01 0.01 0.02 0.02 0.03 0.04 0.05 0.06 0.07 0.08 0.09 0.10 0.07 0.04 0.05 0.04 0.04 0.05 0.03 0.02 0.02 0.01
0.00 0.00 0.00 0.00 0.00 0.00 0.01 0.02 0.03 0.03 0.04 0.05 0.03 0.02 0.00 0.00 0.00 0.00 0.00 0.00 0.00 0.00 0.00 0.01 0.02 0.03 0.05 0.05 0.06 0.07 0.07 0.06 0.08 0.06 0.04 0.05 0.07 0.07 0.08 0.07 0.04 0.02 0.01
0.00 0.00 0.00 0.00 0.00 0.01 0.01 0.03 0.05 0.06 0.06 0.08 0.05 0.03 0.01 0.00 0.00 0.00 0.00 0.00 0.00 0.00 0.00 0.01 0.03 0.03 0.04 0.05 0.06 0.08 0.08 0.09 0.08 0.05 0.04 0.07 0.11 0.10 0.09 0.06 0.03 0.01 0.03
0.00 0.00 0.00 0.01 0.01 0.01 0.01 0.02 0.04 0.07 0.09 0.08 0.08 0.04 0.02 0.01 0.01 0.00 0.00 0.00 0.00 0.00 0.01 0.02 0.03 0.05 0.06 0.05 0.06 0.07 0.09 0.10 0.08 0.07 0.06 0.06 0.10 0.08 0.07 0.05 0.04 0.02 0.03
0.00 0.00 0.00 0.01 0.01 0.01 0.01 0.03 0.06 0.07 0.08 0.08 0.07 0.05 0.02 0.02 0.01 0.01 0.01 0.00 0.00 0.01 0.01 0.01 0.02 0.05 0.06 0.05 0.05 0.07 0.09 0.07 0.05 0.07 0.06 0.06 0.06 0.05 0.04 0.04 0.04 0.04 0.04
0.00 0.00 0.00 0.01 0.01 0.01 0.02 0.03 0.05 0.07 0.08 0.08 0.06 0.04 0.03 0.02 0.00 0.01 0.01 0.00 0.00 0.01 0.00 0.00 0.01 0.02 0.03 0.04 0.05 0.06 0.06 0.04 0.03 0.04 0.05 0.05 0.04 0.03 0.03 0.04 0.05 0.05 0.06
0.00 0.00 0.00 0.01 0.00 0.01 0.03 0.05 0.05 0.05 0.06 0.07 0.05 0.03 0.03 0.01 0.00 0.00 0.00 0.00 0.00 0.00 0.00 0.00 0.00 0.01 0.01 0.02 0.04 0.06 0.05 0.03 0.02 0.03 0.03 0.06 0.05 0.05 0.04 0.04 0.05 0.05 0.06
0.00 0.00 0.00 0.00 0.00 0.01 0.02 0.05 0.06 0.06 0.05 0.05 0.04 0.02 0.02 0.01 0.00 0.00 0.00 0.00 0.00 0.00 0.00 0.00 0.00 0.00 0.00 0.01 0.03 0.04 0.04 0.02 0.01 0.01 0.03 0.05 0.06 0.07 0.06 0.06 0.06 0.07 0.07
0.00 0.00 0.00 0.00 0.00 0.00 0.01 0.01 0.04 0.06 0.06 0.05 0.03 0.01 0.01 0.01 0.01 0.01 0.00 0.00 0.00 0.00 0.00 0.00 0.00 0.00 0.00 0.01 0.02 0.02 0.02 0.02 0.01 0.01 0.02 0.04 0.06 0.08 0.07 0.06 0.08 0.09 0.09
0.00 0.00 0.00 0.00 0.00 0.00 0.00 0.01 0.04 0.04 0.03 0.03 0.04 0.01 0.01 0.01 0.01 0.00 0.00 0.00 0.00 0.00 0.00 0.00 0.00 0.00 0.00 0.00 0.00 0.00 0.00 0.01 0.00 0.01 0.02 0.02 0.03 0.04 0.04 0.04 0.05 0.05 0.06
0.00 0.00 0.00 0.00 0.00 0.00 0.00 0.01 0.03 0.05 0.04 0.03 0.02 0.01 0.01 0.00 0.00 0.00 0.00 0.00 0.00 0.00 0.00 0.00 0.00 0.00 0.00 0.00 0.00 0.00 0.00 0.00 0.01 0.01 0.01 0.01 0.02 0.02 0.01 0.02 0.02 0.02 0.03
0.00 0.00 0.00 0.00 0.00 0.00 0.00 0.00 0.01 0.02 0.02 0.02 0.02 0.01 0.00 0.00 0.00 0.00 0.00 0.00 0.00 0.00 0.00 0.00 0.00 0.00 0.00 0.00 0.00 0.00 0.00 0.00 0.00 0.01 0.02 0.02 0.02 0.02 0.01 0.01 0.02 0.02 0.02
0.00 0.00 0.00 0.00 0.00 0.00 0.00 0.00 0.00 0.00 0.01 0.01 0.01 0.00 0.00 0.00 0.00 0.00 0.00 0.00 0.00 0.00 0.00 0.00 0.00 0.00 0.00 0.00 0.00 0.00 0.00 0.00 0.00 0.01 0.02 0.02 0.03 0.05 0.05 0.03 0.02 0.01 0.02
0.00 0.00 0.00 0.00 0.00 0.00 0.00 0.00 0.00 0.00 0.00 0.00 0.01 0.00 0.00 0.00 0.00 0.00 0.00 0.00 0.00 0.00 0.00 0.00 0.00 0.00 0.00 0.00 0.00 0.00 0.00 0.00 0.00 0.00 0.02 0.02 0.03 0.05 0.07 0.08 0.04 0.02 0.02
0.00 0.00 0.00 0.00 0.00 0.00 0.00 0.00 0.00 0.00 0.00 0.00 0.00 0.00 0.00 0.00 0.00 0.00 0.00 0.00 0.00 0.00 0.00 0.00 0.00 0.00 0.00 0.00 0.01 0.00 0.00 0.00 0.00 0.00 0.01 0.03 0.04 0.04 0.06 0.08 0.06 0.03 0.02
0.00 0.00 0.00 0.00 0.00 0.00 0.00 0.00 0.00 0.00 0.00 0.00 0.00 0.00 0.00 0.00 0.00 0.01 0.01 0.00 0.00 0.00 0.00 0.00 0.00 0.00 0.00 0.01 0.01 0.00 0.00 0.00 0.00 0.00 0.01 0.01 0.03 0.03 0.05 0.05 0.05 0.04 0.01
0.00 0.00 0.00 0.00 0.00 0.00 0.00 0.00 0.00 0.00 0.00 0.00 0.00 0.00 0.01 0.02 0.02 0.05 0.08 0.04 0.01 0.01 0.00 0.00 0.00 0.00 0.02 0.03 0.02 0.01 0.00 0.00 0.00 0.00 0.00 0.00 0.01 0.01 0.03 0.02 0.02 0.02 0.01
0.00 0.00 0.00 0.00 0.00 0.00 0.01 0.02 0.01 0.01 0.01 0.01 0.00 0.00 0.02 0.03 0.05 0.12 0.17 0.13 0.06 0.04 0.04 0.03 0.02 0.02 0.03 0.04 0.01 0.00 0.00 0.00 0.00 0.00 0.00 0.00 0.00 0.00 0.00 0.00 0.00 0.00 0.00
0.02 0.01 0.00 0.00 0.01 0.01 0.02 0.03 0.04 0.05 0.05 0.04 0.03 0.02 0.02 0.04 0.10 0.19 0.24 0.24 0.16 0.13 0.11 0.08 0.06 0.05 0.03 0.02 0.02 0.02 0.01 0.00 0.00 0.00 0.00 0.00 0.00 0.00 0.00 0.00 0.00 0.00 0.00
0.03 0.01 0.01 0.01 0.03 0.05 0.08 0.10 0.11 0.11 0.09 0.09 0.06 0.04 0.04 0.07 0.11 0.15 0.24 0.27 0.24 0.23 0.21 0.15 0.12 0.11 0.07 0.03 0.04 0.05 0.03 0.02 0.00 0.00 0.00 0.00 0.00 0.00 0.00 0.00 0.00 0.00 0.00
0.04 0.02 0.01 0.01 0.05 0.12 0.17 0.22 0.23 0.21 0.20 0.16 0.11 0.10 0.10 0.09 0.09 0.11 0.17 0.21 0.21 0.22 0.25 0.24 0.19 0.17 0.13 0.07 0.04 0.05 0.05 0.05 0.04 0.01 0.00 0.00 0.00 0.00 0.00 0.00 0.00 0.00 0.00
0.03 0.03 0.02 0.03 0.10 0.18 0.24 0.30 0.35 0.38 0.36 0.28 0.22 0.17 0.13 0.10 0.08 0.08 0.09 0.11 0.13 0.14 0.15 0.16 0.13 0.14 0.16 0.12 0.08 0.05 0.06 0.06 0.07 0.05 0.02 0.00 0.00 0.00 0.00 0.00 0.00 0.00 0.00
0.02 0.03 0.04 0.08 0.16 0.22 0.31 0.42 0.52 0.51 0.43 0.33 0.21 0.15 0.12 0.08 0.05 0.05 0.05 0.06 0.07 0.07 0.07 0.08 0.08 0.09 0.11 0.14 0.13 0.12 0.11 0.11 0.08 0.07 0.06 0.03 0.01 0.00 0.00 0.00 0.00 0.00 0.00
0.02 0.04 0.08 0.13 0.20 0.31 0.40 0.50 0.53 0.54 0.46 0.35 0.21 0.11 0.08 0.06 0.04 0.03 0.02 0.04 0.04 0.04 0.03 0.04 0.04 0.04 0.06 0.09 0.11 0.12 0.13 0.13 0.11 0.08 0.06 0.05 0.03 0.01 0.00 0.00 0.00 0.00 0.00

GEFSSE_prec_meanprec_042.txt.gz
QPF
0.00 0.00 0.00 0.00 0.00 0.00 0.00 0.01 0.01 0.01 0.01 0.02 0.02 0.02 0.01 0.01 0.01 0.01 0.00 0.01 0.01 0.02 0.02 0.03 0.03 0.04 0.05 0.05 0.06 0.06 0.07 0.06 0.03 0.02 0.02 0.02 0.01 0.01 0.01 0.01 0.08 0.17 0.03
0.00 0.00 0.00 0.00 0.00 0.00 0.00 0.01 0.01 0.01 0.01 0.02 0.01 0.01 0.01 0.01 0.00 0.00 0.00 0.01 0.01 0.02 0.01 0.02 0.02 0.02 0.04 0.05 0.06 0.07 0.08 0.07 0.05 0.04 0.04 0.04 0.03 0.03 0.01 0.02 0.08 0.14 0.04
0.00 0.00 0.00 0.00 0.00 0.00 0.00 0.00 0.01 0.01 0.01 0.01 0.01 0.00 0.00 0.00 0.00 0.00 0.01 0.00 0.01 0.01 0.01 0.02 0.02 0.02 0.03 0.04 0.05 0.06 0.07 0.06 0.06 0.07 0.15 0.23 0.11 0.04 0.03 0.03 0.04 0.05 0.05
0.00 0.00 0.00 0.00 0.00 0.00 0.00 0.00 0.00 0.01 0.01 0.00 0.00 0.00 0.00 0.00 0.00 0.00 0.00 0.01 0.01 0.02 0.02 0.02 0.03 0.03 0.03 0.03 0.04 0.05 0.05 0.05 0.06 0.09 0.25 0.27 0.17 0.07 0.05 0.06 0.07 0.06 0.05
0.00 0.00 0.00 0.00 0.00 0.00 0.00 0.01 0.01 0.01 0.01 0.01 0.00 0.00 0.00 0.00 0.00 0.00 0.00 0.00 0.01 0.02 0.03 0.02 0.02 0.03 0.02 0.02 0.03 0.04 0.04 0.04 0.05 0.15 0.28 0.30 0.23 0.11 0.08 0.07 0.06 0.06 0.06
0.00 0.00 0.00 0.00 0.00 0.00 0.01 0.01 0.01 0.01 0.01 0.01 0.00 0.00 0.00 0.00 0.00 0.00 0.00 0.00 0.00 0.01 0.01 0.02 0.04 0.02 0.01 0.02 0.03 0.04 0.05 0.05 0.09 0.17 0.25 0.29 0.26 0.12 0.07 0.05 0.06 0.06 0.06
0.00 0.00 0.00 0.00 0.00 0.00 0.01 0.01 0.01 0.02 0.01 0.01 0.01 0.00 0.00 0.00 0.00 0.00 0.00 0.00 0.00 0.00 0.01 0.02 0.03 0.02 0.01 0.02 0.02 0.03 0.03 0.05 0.12 0.17 0.22 0.27 0.22 0.09 0.06 0.06 0.07 0.07 0.05
0.00 0.00 0.00 0.00 0.00 0.00 0.00 0.01 0.01 0.02 0.02 0.02 0.01 0.01 0.01 0.00 0.00 0.00 0.01 0.01 0.00 0.01 0.01 0.01 0.01 0.01 0.01 0.01 0.01 0.02 0.01 0.03 0.09 0.13 0.18 0.22 0.13 0.07 0.05 0.06 0.07 0.07 0.06
0.00 0.00 0.00 0.00 0.00 0.00 0.00 0.01 0.01 0.02 0.02 0.03 0.02 0.01 0.00 0.00 0.00 0.00 0.00 0.00 0.00 0.00 0.01 0.01 0.00 0.00 0.00 0.01 0.01 0.00 0.00 0.02 0.06 0.06 0.09 0.15 0.09 0.07 0.05 0.06 0.07 0.07 0.08
0.00 0.00 0.00 0.00 0.00 0.00 0.00 0.00 0.01 0.02 0.03 0.03 0.03 0.01 0.01 0.00 0.00 0.00 0.00 0.00 0.00 0.00 0.00 0.00 0.00 0.00 0.00 0.00 0.00 0.00 0.00 0.02 0.04 0.05 0.08 0.08 0.05 0.05 0.05 0.05 0.06 0.06 0.08
0.00 0.00 0.00 0.00 0.00 0.01 0.02 0.01 0.01 0.02 0.02 0.02 0.02 0.01 0.01 0.03 0.03 0.01 0.00 0.00 0.00 0.00 0.00 0.00 0.00 0.00 0.00 0.00 0.00 0.00 0.00 0.02 0.02 0.02 0.03 0.02 0.03 0.04 0.05 0.04 0.04 0.04 0.05
0.00 0.00 0.00 0.00 0.00 0.00 0.01 0.07 0.08 0.08 0.05 0.04 0.08 0.03 0.04 0.10 0.08 0.01 0.00 0.00 0.00 0.00 0.00 0.00 0.00 0.00 0.00 0.00 0.00 0.00 0.01 0.01 0.01 0.02 0.01 0.01 0.02 0.02 0.03 0.03 0.02 0.02 0.03
0.00 0.00 0.00 0.00 0.00 0.00 0.01 0.06 0.14 0.18 0.16 0.14 0.14 0.10 0.09 0.05 0.01 0.00 0.00 0.00 0.00 0.00 0.00 0.00 0.00 0.00 0.00 0.00 0.00 0.00 0.01 0.01 0.01 0.02 0.01 0.00 0.01 0.01 0.01 0.01 0.01 0.01 0.02
0.00 0.00 0.00 0.00 0.00 0.00 0.00 0.02 0.06 0.07 0.09 0.09 0.06 0.03 0.03 0.02 0.01 0.00 0.00 0.00 0.00 0.00 0.00 0.00 0.00 0.00 0.00 0.00 0.00 0.00 0.00 0.00 0.01 0.01 0.02 0.00 0.00 0.00 0.01 0.01 0.01 0.01 0.01
0.00 0.00 0.00 0.00 0.00 0.00 0.00 0.01 0.01 0.02 0.02 0.02 0.03 0.02 0.01 0.01 0.00 0.00 0.00 0.00 0.00 0.00 0.00 0.00 0.00 0.00 0.00 0.00 0.00 0.00 0.00 0.00 0.01 0.01 0.02 0.01 0.00 0.00 0.01 0.01 0.01 0.00 0.01
0.00 0.00 0.00 0.00 0.00 0.00 0.00 0.00 0.00 0.01 0.01 0.01 0.02 0.01 0.01 0.00 0.00 0.00 0.00 0.00 0.00 0.00 0.00 0.00 0.00 0.00 0.00 0.00 0.00 0.00 0.00 0.00 0.00 0.00 0.03 0.02 0.00 0.00 0.01 0.02 0.01 0.00 0.01
0.01 0.00 0.00 0.00 0.00 0.00 0.00 0.00 0.00 0.00 0.00 0.00 0.01 0.00 0.00 0.00 0.00 0.00 0.00 0.00 0.00 0.00 0.00 0.00 0.00 0.00 0.00 0.00 0.00 0.00 0.00 0.00 0.00 0.00 0.01 0.04 0.03 0.01 0.01 0.01 0.01 0.01 0.01
0.01 0.01 0.00 0.00 0.00 0.00 0.00 0.00 0.00 0.00 0.00 0.00 0.00 0.00 0.00 0.00 0.00 0.00 0.00 0.00 0.00 0.00 0.00 0.00 0.00 0.00 0.00 0.00 0.00 0.00 0.00 0.00 0.00 0.00 0.01 0.02 0.04 0.04 0.03 0.01 0.01 0.01 0.02
0.02 0.01 0.01 0.01 0.01 0.00 0.00 0.00 0.00 0.00 0.00 0.00 0.00 0.00 0.00 0.00 0.01 0.01 0.02 0.01 0.00 0.00 0.00 0.00 0.00 0.00 0.00 0.00 0.00 0.00 0.00 0.00 0.00 0.00 0.01 0.01 0.01 0.03 0.06 0.01 0.00 0.00 0.00
0.03 0.02 0.01 0.01 0.01 0.01 0.02 0.02 0.01 0.02 0.02 0.02 0.02 0.02 0.03 0.02 0.02 0.04 0.04 0.02 0.01 0.01 0.01 0.01 0.01 0.01 0.02 0.01 0.00 0.00 0.00 0.00 0.00 0.00 0.01 0.00 0.00 0.00 0.01 0.00 0.01 0.01 0.00
0.02 0.01 0.01 0.01 0.01 0.01 0.03 0.03 0.04 0.05 0.06 0.06 0.03 0.02 0.02 0.03 0.04 0.08 0.08 0.06 0.06 0.05 0.03 0.02 0.03 0.05 0.04 0.02 0.04 0.04 0.02 0.00 0.00 0.00 0.00 0.00 0.00 0.00 0.00 0.00 0.00 0.00 0.01
0.00 0.01 0.02 0.01 0.01 0.02 0.03 0.04 0.05 0.07 0.09 0.12 0.11 0.09 0.07 0.08 0.07 0.07 0.12 0.16 0.12 0.10 0.09 0.08 0.13 0.17 0.12 0.07 0.11 0.14 0.11 0.07 0.02 0.00 0.00 0.00 0.00 0.00 0.00 0.00 0.00 0.00 0.01
0.00 0.00 0.01 0.02 0.03 0.05 0.07 0.12 0.18 0.27 0.27 0.23 0.20 0.18 0.13 0.10 0.09 0.11 0.14 0.16 0.12 0.13 0.14 0.14 0.15 0.20 0.17 0.12 0.09 0.12 0.13 0.14 0.11 0.03 0.01 0.00 0.00 0.00 0.00 0.00 0.00 0.00 0.00
0.00 0.00 0.01 0.02 0.05 0.10 0.15 0.21 0.30 0.40 0.39 0.31 0.26 0.22 0.18 0.15 0.14 0.16 0.14 0.16 0.14 0.17 0.18 0.15 0.10 0.13 0.18 0.14 0.13 0.10 0.07 0.10 0.12 0.09 0.04 0.01 0.01 0.01 0.00 0.00 0.00 0.00 0.00
0.00 0.00 0.01 0.04 0.06 0.13 0.17 0.22 0.34 0.49 0.51 0.46 0.38 0.31 0.27 0.22 0.20 0.18 0.15 0.16 0.18 0.16 0.16 0.17 0.16 0.17 0.18 0.19 0.18 0.14 0.12 0.10 0.06 0.09 0.09 0.05 0.03 0.02 0.01 0.01 0.01 0.00 0.00
0.01 0.01 0.02 0.04 0.06 0.09 0.16 0.25 0.33 0.48 0.58 0.61 0.55 0.44 0.35 0.28 0.24 0.22 0.19 0.19 0.18 0.14 0.14 0.16 0.16 0.16 0.15 0.18 0.17 0.13 0.12 0.10 0.08 0.12 0.11 0.09 0.08 0.03 0.02 0.01 0.01 0.01 0.00